OBJECT BA, 43806

Orbit data source: Space-Track

You're viewing an Uncataloged Satellite

Recently launched and/or uncataloged satellites may have evolving metadata. Metadata may include but not limited to: Owner, Maufacturer, Bus, Motor, and Mission.

OBJECT BA, 43806 is a satellite in SSO that was launched on Mon, 03 Dec 2018 UTC via an FALCON 9 launch vehicle from the Air Force Western Test Range (AFWTR). Unknown objects in Earth's orbit typically refer to objects detected orbiting the Earth but have not yet been identified or cataloged. These objects could be anything from previously untracked satellites, spent rocket stages, debris from satellite collisions, or even natural meteoroids temporarily captured by Earth's gravity.

Loading next visibility...
Identifier
43806, 2018-099BA
Orbit
SSO
Country
Flag of TBDTBD
Related business
None
Manufacturer
Unknown
Mission
Non-operational Amateur Technology
Bus & Motor
Unknown
Mass
Unknown
Launch date (UTC)
2018-12-03 (8 years ago)
Launch vehicle
FALCON 9
Launch site
Air Force Western Test Range (AFWTR)
Object type
Unknown
Shape & HBR
Box, 0.1 m
Radar Cross Section
0.015 m², Medium (>0.1 m² and < 1m²)

Expand to show TLE details & history
Last TLE update: 20 hours ago

TLE from 20 hours ago
0 OBJECT BA
1 43806U 18099BA  26193.58363256  .00002679  00000-0  14257-3 0  9993
2 43806  97.3978 240.3539 0005932 229.7474 130.3241 15.16068903416280
Epoch: 2026-07-12T14:00Z
TLE epoch observation values (Epoch: 2026-07-12T14:00:25.853Z)
Latitude
0.00002°
Longitude
99.76577°
Altitude
523.47 km
Speed
7.6 km/s
True Right ascension
16h 01m 24s
True Declination
0° 00' 00"
Sunlit
Object was in full shadow at epoch
Visualization orbit readout
Latitude
Unknown
Longitude
Unknown
Altitude
Unknown
Speed
Unknown
Apparent Right ascension
Unknown
Apparent Declination
Unknown
Sunlit
N/A
Visualization observer readout
Local Sidereal Time
22:02:36
Azimuth
Unknown
Elevation
Unknown
Doppler factor
Unknown
Orbital elements
Apogee altitude
518.795 km
Perigee altitude
510.617 km
Semi-major axis
6,892.843 km
Eccentricity
0.00059
Inclination
97.3978°
RAAN
240.3539°
Arg. of periapsis
229.7474°
True anomaly
130.3759°
Mean anomaly
130.3241°
Eccentric anomaly
130.35°
Mean motion
3.79267 °/min
Orbital period
94.92 mins
BSTAR
0.00014257
Loading maneuver chart data...
Computing Atmospheric mass density...
Loading historical data...
Loading historical data...
Loading historical data...
Loading historical data...
Loading historical data...
Loading historical data...
Loading historical data...

Documentation

Showing up to 5 results
|